User: anonymous   Login
Location: Unspecified
(0.0000°N, 0.0000°E)
Time: 01:10:28
(UTC+01:00)
Language:

H-2A R/B - Orbit

View from above orbital plane
View from above orbital plane
View from above satellite
View from above satellite

Ground track
Ground track

The orbit data is extracted from the following two-line orbital elements,

1 28932U 06002B   17322.86543380  .00000274  00000-0  31692-4 0  9992
2 28932  98.2131 252.0222 0089929 163.8047 269.9250 14.91552257640869
Epoch (UTC): 18 November 2017 20:46:13
Eccentricity: 0.0089929
inclination: 98.2131°
perigee height: 530 km
apogee height: 656 km
right ascension of ascending node: 252.0222°
argument of perigee: 163.8047°
revolutions per day: 14.91552257
mean anomaly at epoch: 269.9250°
orbit number at epoch: 64086

The dashed part of the orbit path shows where the satellite is in the earth's shadow,  

DLR